Regional Weather Roundup
Issued by NWS Goodland, KS

Home | Current Version | Previous Version | Graphics & Text | Print | Product List | Glossary On
Versions: 1 2 3 4 5 6 7 8 9 10 11 12 13 14 15 16 17 18 19 20 21 22 23 24 25 26 27 28 29 30 31 32 33 34 35 36 37 38 39 40 41 42 43 44 45 46 47 48 49 50
000
ASUS43 KGLD 080108
RWRGLD

GOODLAND FORECAST AREA HOURLY WEATHER ROUNDUP
NATIONAL WEATHER SERVICE GOODLAND KS
600 PM MST SUN FEB 07 2016

...OFFICIAL OBSERVATIONS...

CITY           SKY/WX    TMP DP  RH WIND       PRES   REMARKS
GOODLAND KS    CLOUDY    33  17  51 NW28G36   30.29R WCI  20
HILL CITY KS   CLEAR     35  21  56 NW14G23   30.22R
IMPERIAL NEB   CLEAR     31  16  54 NW23G32   30.27R WCI  18
MCCOOK NEB     CLEAR     33  20  58 NW23      30.22R
AKRON CO       CLOUDY    27  17  66 NW22      30.32R WCI  13
BURLINGTON CO  CLOUDY    30  17  58 NW16      30.31R WCI  19
LIMON CO       PTCLDY    18  14  84 NW9       30.34R
$$

...UNOFFICIAL OBSERVATIONS...

CITY           SKY/WX    TMP DP  RH WIND       PRES   REMARKS
COLBY KS       PTCLDY    32  21  64 NW30      30.27R WCI  18
GOVE KS          N/A     35  32  89 MISG        N/A
LENORA KS        N/A     34  32  92 MISG        N/A
NORTON KS      CLEAR     34  18  51 W21G26    30.19
SHARON SPRINGS   N/A     33  20  58 NW21G28     N/A
KIT CARSON CO    N/A     25  18  74 MISG        N/A
YUMA CO          N/A     29  19  64 NW17        N/A  WCI  17
$$



USA.gov is the U.S. government's official web portal to all federal, state and local government web resources and services.